{"data":{"norad_id":85004,"intl_designator":"","name":"UNKNOWN","alt_names":[],"object_type":"UNKNOWN","status":"UNKNOWN","operator":null,"country":null,"launch_date":null,"launch_site_code":null,"launch_vehicle":null,"mission":null,"orbit_class":"UNKNOWN","rcs_meters":null,"size_class":null,"mass_kg":null,"dimensions":null,"purposes":[],"wikipedia_slug":null,"has_3d_model":false,"image_url":null,"decayed_at":null,"tle_current":{"epoch":"2026-09-17T21:14:54.524256Z","epoch_age_seconds":244278,"freshness":"STALE","line1":"1 85004U          26260.88535329  .00000701  00000+0  22569-3 0  9990","line2":"2 85004  98.4546 233.5154 0047672  44.1725 345.7600 14.41672751671116","mean_motion":14.41672751,"eccentricity":0.0047672,"inclination_deg":98.4546,"raan_deg":233.5154,"arg_perigee_deg":44.1725,"mean_anomaly_deg":345.76,"bstar":0.00022569,"rev_number":67111,"period_min":99.883971518582,"perigee_km":718.98158763068,"apogee_km":786.9724812808,"semimajor_km":7131.1140344557,"source":"CELESTRAK","updated_at":"2026-09-20T09:00:32.444284Z"}}}